Cambridge, United Kingdom

9:07 PM BST on August 27, 2016 (GMT +0100)
Cambridge

Weather History for EGSC - October, 2013

Change the Weather History Date:

Saturday, October 12, 2013

  Actual Average Record
Temperature  
Mean Temperature 53 °F -  
Max Temperature 55 °F 53 °F 71 °F (2001)
Min Temperature 50 °F 44 °F 39 °F (1999)
Degree Days  
Heating Degree Days 12    
Growing Degree Days 3 (Base 50)    
Moisture  
Dew Point 48 °F    
Average Humidity 83    
Maximum Humidity 94    
Minimum Humidity 72    
Precipitation  
Precipitation 0.00 in - - ()
Sea Level Pressure  
Sea Level Pressure 30.10 in    
Wind  
Wind Speed 3 mph ()    
Max Wind Speed 6 mph    
Max Gust Speed -    
Visibility 5.9 miles    
Events Rain    
Averages and records for this station are not official NWS values.
T = Trace of Precipitation, MM = Missing Value Source: Averaged Metar Reports

Daily Weather History Graph

Daily Weather History Graph

Search for Another Location

Airport or City:

Trip Planner

Search our weather history database for the weather conditions in past years. The results will help you decide how hot, cold, wet, or windy it might be!

Date:

Astronomy

Oct. 12, 2013 Rise Set
Actual Time 7:19 AM BST 6:11 PM BST
Civil Twilight 6:45 AM BST 6:45 PM BST
Nautical Twilight 6:05 AM BST 7:24 PM BST
Astronomical Twilight 5:26 AM BST 8:03 PM BST
Moon 2:53 PM BST (10/12) No Moon Set
Length of Visible Light 12h 00m
Length of Day
10h 52m
First Quarter, 56% of the Moon is Illuminated
Oct 12
First Quarter
Oct 19
Full
Oct 27
Last Quarter
Nov 3
New
Nov 10
First Quarter

Hourly Weather History & Observations

Time (BST) Temp. Dew Point Humidity Pressure Visibility Wind Dir Wind Speed Gust Speed Precip Events Conditions
7:20 AM 51.8 °F 50.0 °F 94% 30.09 in 5.0 mi ESE 4.6 mph - N/A Rain Light Rain
7:50 AM 51.8 °F 50.0 °F 94% 30.09 in 5.0 mi Variable 2.3 mph - N/A   Mostly Cloudy
8:20 AM 51.8 °F 50.0 °F 94% 30.09 in 5.0 mi Variable 2.3 mph - N/A   Mostly Cloudy
8:50 AM 51.8 °F 50.0 °F 94% 30.12 in 6.2 mi Variable 2.3 mph - N/A   Scattered Clouds
9:20 AM 51.8 °F 48.2 °F 88% 30.12 in 6.2 mi Variable 3.5 mph - N/A   Mostly Cloudy
9:50 AM 51.8 °F 48.2 °F 88% 30.12 in 6.2 mi Variable 3.5 mph - N/A   Mostly Cloudy
10:50 AM 55.4 °F 46.4 °F 72% 30.12 in 6.2 mi Variable 3.5 mph - N/A   Partly Cloudy
11:20 AM 53.6 °F 48.2 °F 82% 30.12 in 6.2 mi NE 4.6 mph - N/A   Scattered Clouds
11:50 AM 53.6 °F 48.2 °F 82% 30.12 in 6.2 mi Variable 3.5 mph - N/A   Scattered Clouds
12:20 PM 53.6 °F 48.2 °F 82% 30.12 in 6.2 mi NE 5.8 mph - N/A   Partly Cloudy
12:50 PM 55.4 °F 46.4 °F 72% 30.12 in 6.2 mi ENE 4.6 mph - N/A   Partly Cloudy
1:20 PM 55.4 °F 46.4 °F 72% 30.12 in 6.2 mi NE 4.6 mph - N/A   Scattered Clouds
1:50 PM 55.4 °F 46.4 °F 72% 30.12 in 6.2 mi NE 5.8 mph - N/A   Scattered Clouds
2:20 PM 55.4 °F 46.4 °F 72% 30.12 in 6.2 mi Variable 3.5 mph - N/A   Scattered Clouds
3:20 PM 53.6 °F 46.4 °F 77% 30.09 in 6.2 mi Variable 3.5 mph - N/A   Partly Cloudy
3:50 PM 53.6 °F 46.4 °F 77% 30.09 in 6.2 mi NNE 2.3 mph - N/A   Partly Cloudy
4:20 PM 53.6 °F 48.2 °F 82% 30.09 in 6.2 mi Calm Calm - N/A   Partly Cloudy
4:50 PM 53.6 °F 46.4 °F 77% 30.06 in 6.2 mi Variable 1.2 mph - N/A Rain Light Rain
5:20 PM 53.6 °F 48.2 °F 82% 30.06 in 6.2 mi Calm Calm - N/A Rain Light Rain
5:50 PM 51.8 °F 50.0 °F 94% 30.06 in 5.6 mi Calm Calm - N/A Rain Light Rain
6:20 PM 51.8 °F 48.2 °F 88% 30.06 in 5.6 mi Variable 2.3 mph - N/A   Partly Cloudy
6:50 PM 51.8 °F 48.2 °F 88% 30.06 in 5.6 mi WSW 3.5 mph - N/A   Partly Cloudy
7:20 PM 50.0 °F 48.2 °F 94% 30.06 in 5.6 mi Variable 2.3 mph - N/A   Partly Cloudy